CW5084 Weather Reports


time (UTC)temp
F
wind
direction
speed
knots
gust
knots
rain 1hr
in
rain 24hr
in
rain mn
in
humidity
%
barometer
mb
20190318232024 26 307 0.0 0.0 0.00 0.00 0.00 92 3381.3
20190318231024 26 307 0.0 0.0 0.00 0.00 0.00 92 3381.3
20190318230023 27 307 0.0 0.0 0.00 0.00 0.00 92 3381.4
20190318225024 27 307 0.0 1.7 0.00 0.00 0.00 92 3381.5
20190318224023 27 290 0.9 1.7 0.00 0.00 0.00 92 3381.3
20190318223023 27 294 0.0 4.3 0.00 0.00 0.00 92 3381.4
20190318222023 27 306 1.7 8.7 0.00 0.00 0.00 91 3381.3
20190318221023 28 315 0.9 8.7 0.00 0.00 0.00 88 3381.0
20190318220024 29 342 4.3 8.7 0.00 0.00 0.00 83 3380.4
20190318215023 29 302 2.6 3.5 0.00 0.00 0.00 83 3380.6
20190318214023 29 303 0.0 3.5 0.00 0.00 0.00 85 3380.1
20190318213023 29 306 0.9 4.3 0.00 0.00 0.00 86 3380.1
20190318212022 29 314 0.9 3.5 0.00 0.00 0.00 87 3379.6
20190318211022 29 298 0.0 1.7 0.00 0.00 0.00 89 3379.9
20190318210022 29 321 0.0 1.7 0.00 0.00 0.00 89 3380.0
20190318205022 29 303 0.9 4.3 0.00 0.00 0.00 90 3379.9
20190318204022 29 5 0.9 2.6 0.00 0.00 0.00 89 3379.6
20190318203022 29 355 0.9 5.2 0.00 0.00 0.00 90 3379.3
20190318202022 29 319 0.0 4.3 0.00 0.00 0.00 91 3379.3
20190318201022 28 319 0.0 9.6 0.00 0.00 0.00 89 3379.6
20190318200022 30 311 0.9 7.8 0.00 0.00 0.00 86 3379.8
20190318195021 30 303 0.9 8.7 0.00 0.00 0.00 82 3379.1
20190318194023 31 295 3.5 6.1 0.00 0.00 0.00 78 3379.1
20190318193021 32 288 4.3 7.0 0.00 0.00 0.00 75 3379.0
20190318192021 32 219 5.2 7.8 0.00 0.00 0.00 74 3378.7
20190318191021 32 275 2.6 7.8 0.00 0.00 0.00 76 3379.2
20190318190021 31 268 0.9 6.1 0.00 0.00 0.00 81 3379.3
20190318185021 30 216 0.9 5.2 0.00 0.00 0.00 87 3379.9
20190318184021 30 219 0.0 6.1 0.00 0.00 0.00 89 3380.6
20190318183021 29 267 0.0 9.6 0.00 0.00 0.00 85 3381.1
20190318182021 30 238 4.3 12.2 0.00 0.00 0.00 74 3381.7
20190318181021 31 285 7.8 11.3 0.00 0.00 0.00 66 3381.3
20190318180020 31 213 0.9 9.6 0.00 0.00 0.00 66 3381.2
20190318175020 32 223 2.6 8.7 0.00 0.00 0.00 65 3381.8
20190318174020 32 298 0.9 9.6 0.00 0.00 0.00 65 3382.0
20190318173020 31 319 3.5 10.4 0.00 0.00 0.00 64 3382.0
20190318172020 31 323 5.2 11.3 0.00 0.00 0.00 58 3382.3
20190318171020 31 263 0.9 11.3 0.00 0.00 0.00 61 3382.5
20190318170020 31 238 0.9 8.7 0.00 0.00 0.00 61 3382.6
20190318165019 31 321 3.5 9.6 0.00 0.00 0.00 62 3382.1
20190318164019 31 253 0.9 9.6 0.00 0.00 0.00 60 3382.4
20190318163019 31 274 1.7 13.9 0.00 0.00 0.00 61 3382.4
20190318162019 31 283 0.0 10.4 0.00 0.00 0.00 59 3382.3
20190318161019 31 271 0.9 8.7 0.00 0.00 0.00 64 3382.4
20190318160019 30 225 5.2 9.6 0.00 0.00 0.00 63 3381.9
20190318155018 31 281 7.8 9.6 0.00 0.00 0.00 64 3382.4
20190318154019 30 219 5.2 6.1 0.00 0.00 0.00 63 3382.0
20190318153018 30 307 0.0 7.0 0.00 0.00 0.00 61 3382.0
20190318152018 30 265 3.5 8.7 0.00 0.00 0.00 63 3382.2
20190318151018 30 282 0.9 8.7 0.00 0.00 0.00 63 3382.2
20190318150019 29 287 0.9 7.8 0.00 0.00 0.00 63 3382.3
20190318145018 29 248 1.7 6.1 0.00 0.00 0.00 61 3382.1
20190318144018 30 336 1.7 8.7 0.00 0.00 0.00 60 3382.1
20190318143018 29 222 0.9 7.8 0.00 0.00 0.00 65 3381.7
20190318142018 29 229 5.2 8.7 0.00 0.00 0.00 65 3381.7
20190318141017 29 254 0.9 7.8 0.00 0.00 0.00 70 3381.5
20190318140018 28 270 2.6 7.8 0.00 0.00 0.00 70 3380.8
20190318135017 28 261 1.7 8.7 0.00 0.00 0.00 72 3380.5
20190318134017 28 269 0.9 9.6 0.00 0.00 0.00 73 3380.5
20190318133017 27 254 1.7 6.1 0.00 0.00 0.00 78 3380.3
20190318132017 27 194 0.9 3.5 0.00 0.00 0.00 80 3380.1
20190318131017 27 177 3.5 3.5 0.00 0.00 0.00 83 3379.9
20190318130017 26 178 0.0 3.5 0.00 0.00 0.00 87 3379.2
20190318125017 25 191 0.0 3.5 0.00 0.00 0.00 87 3378.6
20190318124016 25 211 0.0 2.6 0.00 0.00 0.00 88 3378.3
20190318123016 25 244 0.0 0.9 0.00 0.00 0.00 90 3378.1
20190318122016 23 262 0.0 0.9 0.00 0.00 0.00 91 3377.6
20190318121016 22 306 0.0 0.9 0.00 0.00 0.00 90 3376.6
20190318120016 21 306 0.0 0.9 0.00 0.00 0.00 90 3376.5
20190318115016 21 306 0.0 0.0 0.00 0.00 0.00 90 3376.4
20190318114016 20 306 0.0 0.0 0.00 0.00 0.00 90 3376.3
20190318113017 20 306 0.0 0.0 0.00 0.00 0.00 89 3376.0
20190318112016 21 306 0.0 0.0 0.00 0.00 0.00 89 3375.9
20190318111015 21 306 0.0 0.0 0.00 0.00 0.00 89 3376.0
20190318110016 21 306 0.0 0.0 0.00 0.00 0.00 88 3375.8
20190318105015 21 306 0.0 0.0 0.00 0.00 0.00 88 3375.7
20190318104015 22 306 0.0 0.0 0.00 0.00 0.00 87 3375.4
20190318103015 23 306 0.0 0.0 0.00 0.00 0.00 87 3375.2
20190318102015 23 306 0.0 0.0 0.00 0.00 0.00 88 3375.3
20190318101015 23 306 0.0 0.0 0.00 0.00 0.00 88 3375.2
20190318100014 23 306 0.0 0.0 0.00 0.00 0.00 88 3374.8
20190318095014 24 306 0.0 0.0 0.00 0.00 0.00 88 3374.9
20190318094014 24 306 0.0 0.9 0.00 0.00 0.00 88 3374.9
20190318093014 24 306 0.9 3.5 0.00 0.00 0.00 88 3374.9
20190318092015 24 296 0.9 4.3 0.00 0.00 0.00 88 3374.8
20190318091044 24 312 0.0 1.7 0.00 0.00 0.00 88 3374.7
20190318090044 24 311 0.0 1.7 0.00 0.00 0.00 88 3374.6
20190318085013 24 314 0.9 1.7 0.00 0.00 0.00 88 3374.5
20190318084014 24 5 0.0 1.7 0.00 0.00 0.00 88 3374.7
20190318083014 24 338 0.0 1.7 0.00 0.00 0.00 88 3374.7
20190318082013 25 336 0.0 5.2 0.00 0.00 0.00 88 3374.3
20190318081013 25 360 5.2 5.2 0.00 0.00 0.00 88 3374.2
20190318080043 25 17 0.9 5.2 0.00 0.00 0.00 87 3374.0
20190318075013 25 332 2.6 11.3 0.00 0.00 0.00 85 3374.0
20190318074013 26 301 0.9 11.3 0.00 0.00 0.00 82 3374.1
20190318073013 26 286 1.7 6.1 0.00 0.00 0.00 79 3373.9
20190318072012 26 5 0.0 7.0 0.00 0.00 0.00 78 3374.0
20190318071012 26 290 0.9 11.3 0.00 0.00 0.00 77 3374.0
20190318070042 26 293 6.1 11.3 0.00 0.00 0.00 76 3373.8
20190318065012 26 289 0.9 9.6 0.00 0.00 0.00 76 3374.1
20190318064012 26 288 0.0 7.0 0.00 0.00 0.00 76 3374.0
20190318063012 26 267 0.9 3.5 0.00 0.00 0.00 77 3374.0
20190318062011 26 285 2.6 5.2 0.00 0.00 0.00 77 3374.0
20190318061012 26 254 0.9 10.4 0.00 0.00 0.00 75 3374.1
20190318060041 27 317 1.7 10.4 0.00 0.00 0.00 73 3374.3
20190318055011 27 246 0.9 8.7 0.00 0.00 0.00 70 3373.6
20190318054011 27 254 2.6 8.7 0.00 0.00 0.00 70 3373.6
20190318053011 27 284 0.9 7.8 0.00 0.00 0.00 70 3373.7
20190318052040 27 277 3.5 7.8 0.00 0.00 0.00 69 3373.7
20190318051010 27 273 0.9 6.1 0.00 0.00 0.00 69 3373.4
20190318050040 27 257 3.5 7.0 0.00 0.00 0.00 69 3373.4
20190318045040 27 239 0.0 7.0 0.00 0.00 0.00 68 3373.0
20190318044010 27 278 0.9 7.0 0.00 0.00 0.00 68 3373.3
20190318043010 27 284 0.9 7.8 0.00 0.00 0.00 68 3372.9
20190318042040 27 280 0.9 7.0 0.00 0.00 0.00 68 3373.1
20190318041010 27 263 1.7 5.2 0.00 0.00 0.00 67 3373.0
20190318040039 27 253 0.9 6.1 0.00 0.00 0.00 67 3373.1
20190318035039 27 255 1.7 8.7 0.00 0.00 0.00 67 3373.3
20190318034039 27 237 0.9 7.8 0.00 0.00 0.00 68 3373.3
20190318033039 27 265 2.6 7.0 0.00 0.00 0.00 68 3373.0
20190318032039 27 246 0.9 7.8 0.00 0.00 0.00 67 3373.1
20190318031039 27 251 0.9 8.7 0.00 0.00 0.00 67 3373.3
20190318030039 27 258 0.9 8.7 0.00 0.00 0.00 67 3373.4
20190318025039 27 269 0.9 7.8 0.00 0.00 0.00 67 3372.7
20190318024038 27 259 0.9 7.8 0.00 0.00 0.00 67 3373.0
20190318023039 27 251 0.9 6.1 0.00 0.00 0.00 66 3372.6
20190318022038 27 254 6.1 7.0 0.00 0.00 0.00 65 3372.7
20190318021038 27 232 0.9 6.1 0.00 0.00 0.00 64 3372.6
20190318020038 27 246 0.9 4.3 0.00 0.00 0.00 63 3372.9
20190318015038 27 219 0.9 4.3 0.00 0.00 0.00 63 3372.6
20190318014038 27 221 0.0 6.1 0.00 0.00 0.00 63 3372.6
20190318013038 27 216 0.9 1.7 0.00 0.00 0.00 63 3373.1
20190318012037 27 219 0.0 4.3 0.00 0.00 0.00 63 3373.2
20190318011038 26 235 0.0 0.9 0.00 0.00 0.00 69 3373.3
20190318010037 25 240 0.0 0.0 0.00 0.00 0.00 68 3372.8
20190318005037 25 240 0.0 0.0 0.00 0.00 0.00 66 3372.6
20190318004037 25 240 0.0 0.0 0.00 0.00 0.00 68 3372.5
20190318003037 25 240 0.0 0.0 0.00 0.00 0.00 69 3372.5
20190318002039 25 240 0.0 0.0 0.00 0.00 0.00 66 3371.9
20190318001037 26 240 0.0 0.9 0.00 0.00 0.00 64 3371.8
20190318000036 26 243 0.0 0.9 0.00 0.00 0.00 62 3372.0
20190317235037 26 246 0.0 0.0 0.00 0.00 0.00 61 3372.1
20190317234036 26 246 0.0 0.9 0.00 0.00 0.00 61 3371.9
20190317233036 27 242 0.9 1.7 0.00 0.00 0.00 60 3372.3